User: anonymous   Login
Location: Mason Neck State Park
(38.6428°N, 77.1981°W)
Time: 12:44:34
(UTC-04:00)
Language:

Cosmos 1400 Rocket - Orbit

View from above orbital plane
View from above orbital plane
View from above satellite
View from above satellite

Ground track
Ground track

The orbit data is extracted from the following two-line orbital elements,

1 13403U 82079B   16237.81749182 -.00000039  00000-0 -42325-5 0  9991
2 13403  81.1667 248.7223 0034539 172.0853 188.0923 15.06280871852105
Epoch (UTC): 24 August 2016 19:37:11
Eccentricity: 0.0034539
inclination: 81.1667°
perigee height: 523 km
apogee height: 571 km
right ascension of ascending node: 248.7223°
argument of perigee: 172.0853°
revolutions per day: 15.06280871
mean anomaly at epoch: 188.0923°
orbit number at epoch: 85210

The dashed part of the orbit path shows where the satellite is in the earth's shadow,  

DLR